Find Local Weather

World > North America > United States > Vermont

Brattleboro, Vermont Regional Weather

Lat: 42.86N, Lon: 72.57W
Wx Zone: VTZ015
Feedback
Expires:201810220800;;554491
ASUS41 KBTV 220730
RWRBTV
VERMONT REGIONAL WEATHER ROUNDUP
NATIONAL WEATHER SERVICE BURLINGTON VT
300 AM EDT MON OCT 22 2018

NOTE: "FAIR" INDICATES FEW OR NO CLOUDS BELOW 12,000 FEET WITH NO 
SIGNIFICANT WEATHER AND/OR OBSTRUCTIONS TO VISIBILITY.

* THESE REPORTS ARE NOT UNDER NWS QUALITY CONTROL AND/OR DO NOT
  REPORT WEATHER SUCH AS PRECIPITATION AND FOG.


VTZ001>019-220800-
_____VERMONT_____

  
CITY           SKY/WX    TMP DP  RH WIND       PRES   REMARKS
BURLINGTON     CLOUDY    37  18  46 NW8       30.10S WCI  31          
MONTPELIER     CLOUDY    32  17  54 NW9G21    30.08S WCI  24          
MORRISVILLE    CLOUDY    32  23  69 VRB6      30.08R WCI  26          
ST. JOHNSBURY*   N/A     32  22  66 MISG      30.05R                  
LYNDONVILLE*   FAIR      30  21  69 W7        30.05R WCI  23          
MIDDLEBURY*    CLOUDY    30  22  73 CALM      30.10S                  
RUTLAND*       CLOUDY    29  23  78 CALM      30.10R                  
SPRINGFIELD    FAIR      27  22  81 CALM      30.11R                  
HIGHGATE*      CLOUDY    33  22  64 CALM      30.09R                  
NEWPORT*       FAIR      30  22  71 W5        30.05S WCI  25          
BENNINGTON     CLOUDY    35  26  69 SW5       30.11R WCI  31          
ISLAND POND*     N/A     30 N/A N/A W8          N/A  WCI  23          
GALLUP MILLS*    N/A     30 N/A N/A MISG        N/A                   
LAKE EDEN*       N/A     30 N/A N/A SW5         N/A  WCI  25          
MT. MANSFIELD*   N/A     18 N/A N/A W31         N/A  WCI  -2          

_____LAKE CHAMPLAIN_____

  
CITY           SKY/WX    TMP DP  RH WIND       PRES   REMARKS
BURTON ISLAND*   N/A     37  25  60 W12G20      N/A  WCI  30          
COLCHESTER RF*   N/A     37  21  52 NW9         N/A  WCI  31          
DIAMOND ISL*     N/A     37  19  48 NW5         N/A                   

$$


SKY/WX - Weather  TMP - Temperature  DP - Dew Point  RH - Relative Humidity
WIND - Wind Direction/Speed PRES - Barometric Pressure